Kiama Observation History
Time Wind Speed Temp Pressure Rel. Hum Rain
03/02:00pm NNW 6-8 kts 23.0°c n/a 64% 0.2mm
03/01:30pm NNW 4-7 kts 22.9°c n/a 71% 0.2mm
03/01:00pm N 8-10 kts 22.0°c n/a 72% 0.2mm
03/12:30pm N 8-10 kts 22.6°c n/a 70% 0.0mm
03/12:00pm NNW 6-10 kts 23.2°c n/a 66% 0.0mm
03/11:30am N 7-11 kts 23.1°c n/a 68% 0.0mm
03/11:00am NNW 7-10 kts 23.8°c n/a 60% 0.0mm
03/10:30am NNE 5-7 kts 23.2°c n/a 66% 0.0mm
03/10:00am N 3-5 kts 22.6°c n/a 70% 0.0mm
03/09:30am NE 3-4 kts 21.6°c n/a 73% 0.0mm
03/09:00am WNW 3-5 kts 21.2°c n/a 72% 5.2mm
03/08:30am W 5-8 kts 19.8°c n/a 75% 5.2mm
03/08:00am W 5-8 kts 19.4°c n/a 77% 5.2mm
03/07:30am W 4-5 kts 18.7°c n/a 79% 5.2mm
03/07:00am W 5-6 kts 18.6°c n/a 79% 5.2mm
03/06:30am W 5-7 kts 18.4°c n/a 80% 5.2mm
03/06:00am WNW 3 kts 18.2°c n/a 81% 5.2mm
03/05:30am W 3-5 kts 17.6°c n/a 83% 5.2mm
03/05:00am NNW 1-3 kts 17.7°c n/a 84% 5.2mm
03/04:30am SW 2-3 kts 18.1°c n/a 83% 5.2mm
03/04:00am W 2-3 kts 17.3°c n/a 85% 5.2mm
03/03:30am SW 2-3 kts 17.5°c n/a 86% 5.2mm
03/03:00am CALM 0 kts 18.2°c n/a 85% 5.2mm
03/02:30am WNW 3-6 kts 18.3°c n/a 85% 5.2mm
03/02:00am NW 5-7 kts 18.5°c n/a 86% 5.2mm
03/01:30am CALM 0 kts 18.3°c n/a 86% 5.2mm
03/01:00am S 2-3 kts 18.6°c n/a 86% 5.2mm
03/12:30am NNW 2-3 kts 18.9°c n/a 84% 5.2mm
03/12:00am N 4-5 kts 19.6°c n/a 84% 5.2mm
Time Wind Speed Temp Pressure Rel. Hum Rain
02/11:30pm NNW 2-3 kts 19.6°c n/a 84% 5.2mm
02/11:00pm NW 3-5 kts 19.8°c n/a 84% 5.2mm
02/10:30pm NNW 8-11 kts 20.1°c n/a 85% 5.2mm
02/10:00pm NW 1-3 kts 19.8°c n/a 86% 5.2mm
02/09:30pm NNW 1-2 kts 20.0°c n/a 86% 5.2mm
02/09:00pm N 4-10 kts 20.5°c n/a 87% 5.2mm
02/08:30pm N 3-6 kts 20.3°c n/a 87% 5.2mm
02/08:00pm N 3-7 kts 20.3°c n/a 87% 5.2mm
02/07:30pm N 11-14 kts 20.8°c n/a 88% 5.2mm
02/07:00pm N 13-17 kts 20.7°c n/a 87% 5.2mm
02/06:30pm N 13-18 kts 20.6°c n/a 87% 4.8mm
02/06:00pm N 11-15 kts 20.6°c n/a 88% 4.8mm
02/05:30pm N 12-18 kts 20.7°c n/a 87% 4.6mm
02/05:00pm N 14-20 kts 20.6°c n/a 87% 4.2mm
02/04:30pm N 12-16 kts 20.6°c n/a 87% 4.2mm
02/04:00pm N 10-13 kts 20.7°c n/a 87% 4.0mm
02/03:30pm N 9-14 kts 20.7°c n/a 86% 3.2mm
02/03:00pm N 11-17 kts 20.9°c n/a 85% 1.6mm
02/02:30pm N 10-14 kts 21.3°c n/a 83% 0.4mm
02/02:00pm N 11-14 kts 21.5°c n/a 81% 0.2mm
02/01:30pm N 7-11 kts 21.8°c n/a 80% 0.2mm
02/01:00pm NNE 8-11 kts 22.2°c n/a 76% 0.2mm
02/12:30pm N 11-16 kts 22.6°c n/a 72% 0.2mm
02/12:00pm N 10-14 kts 23.0°c n/a 69% 0.2mm
02/11:30am N 10-15 kts 22.5°c n/a 72% 0.0mm
02/11:00am N 9-11 kts 22.9°c n/a 72% 0.0mm
02/10:30am N 8-11 kts 21.8°c n/a 77% 0.0mm
02/10:00am N 4-7 kts 21.6°c n/a 79% 0.0mm
02/09:30am NNW 7-10 kts 21.3°c n/a 79% 0.0mm
02/09:00am NNW 8-11 kts 21.0°c n/a 80% 5.2mm
02/08:30am NW 4-8 kts 20.7°c n/a 83% 5.2mm
02/08:00am NW 5-8 kts 19.5°c n/a 85% 5.2mm
02/07:30am WNW 6-7 kts 18.9°c n/a 85% 5.2mm
02/07:00am NW 4-6 kts 18.9°c n/a 85% 5.2mm
02/06:30am NNW 1-2 kts 19.1°c n/a 84% 5.2mm
02/06:00am WNW 5-6 kts 19.3°c n/a 85% 5.2mm
02/05:30am WNW 3-4 kts 19.2°c n/a 86% 5.2mm
02/05:00am WNW 3-4 kts 19.1°c n/a 86% 5.2mm
02/04:30am NNW 2-4 kts 19.4°c n/a 86% 5.2mm
02/04:00am NW 5-7 kts 19.7°c n/a 86% 5.2mm
02/03:30am NNW 3-6 kts 19.9°c n/a 86% 5.2mm
02/03:00am NW 5-7 kts 20.2°c n/a 87% 5.2mm
02/02:30am WNW 4-5 kts 20.4°c n/a 86% 5.2mm
02/02:00am N 4-7 kts 20.9°c n/a 86% 5.2mm
02/01:30am N 8-12 kts 21.4°c n/a 85% 5.2mm
02/01:00am NNE 12-17 kts 21.8°c n/a 83% 3.8mm
02/12:30am NNE 15-19 kts 21.7°c n/a 83% 3.8mm
02/12:00am NNE 13-17 kts 21.6°c n/a 84% 3.8mm
Time Wind Speed Temp Pressure Rel. Hum Rain
01/11:30pm NNE 11-15 kts 21.5°c n/a 84% 3.8mm
01/11:00pm N 5-9 kts 20.9°c n/a 85% 3.8mm
01/10:30pm N 6-11 kts 21.0°c n/a 85% 3.8mm
01/10:00pm NW 4-7 kts 20.8°c n/a 85% 3.8mm
01/09:30pm NW 4-6 kts 20.6°c n/a 86% 3.8mm
01/09:00pm NW 3-6 kts 20.0°c n/a 86% 3.8mm
01/08:30pm WNW 5-7 kts 19.8°c n/a 86% 3.8mm
01/08:00pm WNW 5-6 kts 19.8°c n/a 86% 3.8mm
01/07:30pm N 2-3 kts 19.6°c n/a 86% 3.8mm
01/07:00pm WNW 4-5 kts 19.5°c n/a 86% 3.8mm
01/06:30pm WSW 3-5 kts 19.7°c n/a 86% 3.8mm
01/06:00pm WNW 3-8 kts 19.8°c n/a 87% 3.6mm
01/05:30pm W 3-6 kts 19.9°c n/a 87% 3.6mm
01/05:00pm NW 5-8 kts 19.6°c n/a 86% 3.2mm
01/04:30pm NW 5-8 kts 19.4°c n/a 86% 2.8mm
01/04:00pm NW 5-7 kts 20.0°c n/a 84% 0.4mm
01/03:30pm N 9-11 kts 22.2°c n/a 78% 0.2mm
01/03:00pm NNE 10-12 kts 22.3°c n/a 78% 0.2mm
01/02:30pm NNE 11-13 kts 22.6°c n/a 77% 0.2mm
01/02:00pm NNE 10-12 kts 22.5°c n/a 77% 0.2mm
01/01:30pm NNE 9-11 kts 22.8°c n/a 74% 0.2mm
01/01:00pm NNE 8-9 kts 24.2°c n/a 75% 0.2mm
01/12:30pm NNE 9-10 kts 22.8°c n/a 78% 0.2mm
01/12:00pm NNE 4-10 kts 22.4°c n/a 80% 0.2mm
01/11:30am ENE 4-5 kts 22.6°c n/a 81% 0.2mm
01/11:00am NNE 7-11 kts 21.9°c n/a 77% 0.0mm
01/10:30am NNE 8-10 kts 22.6°c n/a 77% 0.0mm
01/10:00am NNE 8-10 kts 22.8°c n/a 79% 0.0mm
01/09:30am NE 6-9 kts 22.7°c n/a 77% 0.0mm
01/09:00am NE 5-9 kts 22.2°c n/a 80% 0.0mm
01/08:30am WNW 2-4 kts 21.4°c n/a 82% 0.0mm
01/08:00am NE 6-10 kts 21.5°c n/a 81% 0.0mm
01/07:30am NE 5-8 kts 21.2°c n/a 83% 0.0mm
01/07:00am SSW 2-4 kts 20.5°c n/a 82% 0.0mm
01/06:30am ENE 3-6 kts 21.3°c n/a 81% 0.0mm
01/06:00am NE 5-8 kts 21.4°c n/a 81% 0.0mm
01/05:30am NE 5-9 kts 21.3°c n/a 80% 0.0mm
01/05:00am NE 5-8 kts 21.2°c n/a 80% 0.0mm
01/04:30am ENE 7-9 kts 21.3°c n/a 80% 0.0mm
01/04:00am NE 6-8 kts 21.2°c n/a 80% 0.0mm
01/03:30am NE 6-7 kts 21.2°c n/a 79% 0.0mm
01/03:00am NE 4-7 kts 21.2°c n/a 79% 0.0mm
01/02:30am NE 5-8 kts 21.1°c n/a 79% 0.0mm
01/02:00am NE 5-8 kts 21.1°c n/a 79% 0.0mm
01/01:30am NE 7-9 kts 21.1°c n/a 79% 0.0mm
01/01:00am NE 8-10 kts 21.0°c n/a 79% 0.0mm
01/12:30am ENE 7-10 kts 21.1°c n/a 79% 0.0mm
01/12:00am ENE 8-9 kts 21.3°c n/a 80% 0.0mm